Tracking 19575 objects as of 18-Feb-2019
HD Live streaming from Space Station
objects crossing your sky now

DELTA 1 DEB

Track DELTA 1 DEB now!
10-day predictions


NORAD ID: 3975
Int'l Code: 1968-069F
Perigee: 1,423.5 km
Apogee: 1,490.7 km
Inclination: 101.9 °
Period: 114.9 minutes
Semi major axis: 7828 km
RCS: 0.0547 m2 (small)
Launch date: August 16, 1968
Source: United States (US)
Launch site: AIR FORCE WESTERN TEST RANGE (AFWTR)

Note: This is SATELLITE DEBRIS
aabbcc
Your satellite tracking list
Your tracking list is empty




NASA's NSSDC Master Catalog

Two Line Element Set (TLE):
1  3975U 68069F   19049.05175191 -.00000038  00000-0  49471-4 0  9996
2  3975 101.9203 102.9219 0042884 291.9246 135.4788 12.53482730313126
Source of the keplerian elements: AFSPC